Content
SEND FEEDBACK

Daily
Averages
Monthly
Summary
United States of America

POTTS JUNCTION, GUAM


Home > North America > United States > Guam
Elevation: 110 meters     Latitude: 13 33N     Longitude: 144 50E

WEATHER
 
SELECT A DAY
Number of Records: 208,919;   Date Range: 1/1/95 - 7/23/14
 
SHARE

PRINT THIS DATA

[ ← Previous Day ]
WEATHER ALMANAC - 3 MAY, 2013
[ Next Day → ]
[ °F ]   °C
Weather ElementAverageHighLow
Temperature28.6 °C31.1 °C (11:54 am)27.2 °C (2:54 am)
Dewpoint25.2 °C26 °C (9:59 am)23.9 °C (11:54 pm)
Humidity82 %89 % (3:22 pm)66 % (1:08 pm)
Barometer1012.2 hPa1014.6 hPa (10:41 pm)1010.2 hPa (2:54 am)
Wind Speed13.2 km/h25.9 km/h (2:31 pm)
Wind Gust35.2 km/h (11:01 am)
Weather ElementAverage
Visibility14.5 km
Wind DirectionESE (115.5 °)

Weather ElementTotal
Precipitation24.64 mm
Cooling Degree Days10.8 (Base 18.3)
Growing Degree Days19.2 (Base 10)
Averaged from 42 records on 3 May, 2013
WEATHER CONDITIONS BREAKOUT
WIND DIRECTION BREAKOUT
WEATHER BY HOUR - 3 MAY, 2013
[ °F ]   °C
Local TimeTemperatureDewpointHumidityBarometerVisibilityWind DirectionWind SpeedGust SpeedPrecipitationEventsConditions
1:54 AM27.8 °C25 °C85 %1010.8 hPa16.1 kmSE (130°)9.3 km/h0 mmMostly Cloudy
2:54 AM27.2 °C25 °C88 %1010.2 hPa16.1 kmCalm0 mmClear
3:34 AM28 °C25 °C84 %1010.8 hPa16.1 kmEast (100°)7.4 km/hMostly Cloudy
3:41 AM28 °C25 °C84 %1010.8 hPa16.1 kmESE (110°)11.1 km/hScattered Clouds
3:54 AM27.8 °C25 °C85 %1010.2 hPa16.1 kmEast (90°)11.1 km/hPartly Cloudy
4:54 AM27.8 °C25 °C85 %1010.2 hPa16.1 kmESE (110°)9.3 km/hClear
5:54 AM27.8 °C25.6 °C88 %1010.8 hPa16.1 kmESE (120°)7.4 km/hPartly Cloudy
6:54 AM28.3 °C25 °C82 %1011.9 hPa16.1 kmSE (130°)7.4 km/h0.25 mmScattered Clouds
7:54 AM29.4 °C25.6 °C80 %1012.5 hPa16.1 kmESE (110°)13 km/hMostly Cloudy
8:54 AM29.4 °C24.4 °C74 %1012.9 hPa16.1 kmESE (110°)16.7 km/hScattered Clouds
9:54 AM29.4 °C25 °C77 %1012.5 hPa16.1 kmESE (110°)18.5 km/hMostly Cloudy
9:59 AM29 °C26 °C84 %1013.2 hPa14.5 kmEast (90°)24.1 km/h0 mmRainLight Rain
10:54 AM30 °C25.6 °C77 %1011.9 hPa16.1 kmESE (110°)22.2 km/h31.5 km/h0.25 mmMostly Cloudy
11:01 AM31 °C25 °C70 %1012.5 hPa16.1 kmESE (110°)24.1 km/h35.2 km/hClear
11:54 AM31.1 °C25 °C70 %1011.9 hPa16.1 kmESE (120°)18.5 km/h33.3 km/hPartly Cloudy
12:54 PM30.6 °C25.6 °C74 %1011.5 hPa16.1 kmSSE (150°)18.5 km/h31.5 km/hMostly Cloudy
1:08 PM31 °C24 °C66 %1012.2 hPa16.1 kmESE (110°)22.2 km/h31.5 km/hScattered Clouds
1:54 PM30.6 °C25.6 °C74 %1011.2 hPa16.1 kmSE (140°)16.7 km/h33.3 km/hMostly Cloudy
2:31 PM31 °C25 °C70 %1011.5 hPa16.1 kmESE (110°)25.9 km/h35.2 km/hScattered Clouds
2:54 PM30.6 °C25 °C72 %1010.8 hPa16.1 kmESE (120°)18.5 km/h31.5 km/hMostly Cloudy
3:22 PM28 °C26 °C89 %1011.9 hPa2.4 kmSSE (160°)20.4 km/h35.2 km/h1.27 mmRainHeavy Rain
3:25 PM28 °C26 °C89 %1011.9 hPa11.3 kmSSE (160°)18.5 km/h35.2 km/h2.79 mmRainLight Rain
3:52 PM28 °C25 °C84 %1011.5 hPa12.9 kmSE (130°)13 km/h29.6 km/h3.3 mmRainLight Rain
3:54 PM27.8 °C25 °C85 %1010.8 hPa14.5 kmSE (130°)11.1 km/h29.6 km/h3.3 mmRainLight Rain
4:54 PM28.3 °C25.6 °C85 %1011.2 hPa4.8 kmESE (120°)13 km/h0.25 mmRainHeavy Rain
5:00 PM28 °C26 °C89 %1011.9 hPa11.3 kmSE (140°)9.3 km/h1.02 mmRainLight Rain
5:54 PM27.8 °C25.6 °C88 %1011.9 hPa16.1 kmEast (100°)7.4 km/h1.27 mmMostly Cloudy
6:41 PM28 °C25 °C84 %1012.9 hPa11.3 kmSE (140°)9.3 km/h1.27 mmRainLight Rain
6:54 PM27.8 °C25.6 °C88 %1012.5 hPa16.1 kmSouth (190°)5.6 km/h1.52 mmMostly Cloudy
7:43 PM28 °C25 °C84 %1013.5 hPa16.1 kmESE (110°)11.1 km/hMostly Cloudy
7:54 PM28.3 °C25.6 °C85 %1012.9 hPa16.1 kmEast (90°)13 km/hMostly Cloudy
8:12 PM28 °C24 °C79 %1013.9 hPa16.1 kmESE (110°)13 km/h0 mmOvercast
8:54 PM28.3 °C25.6 °C85 %1013.5 hPa16.1 kmEast (90°)9.3 km/h0 mmMostly Cloudy
9:25 PM28 °C26 °C89 %1014.2 hPa16.1 kmESE (120°)7.4 km/hScattered Clouds
9:54 PM28.3 °C25 °C82 %1013.5 hPa16.1 kmEast (90°)11.1 km/hScattered Clouds
10:41 PM28 °C25 °C84 %1014.6 hPa6.4 kmSE (140°)18.5 km/h29.6 km/h0 mmRainRain
10:49 PM28 °C25 °C84 %1014.6 hPa8 kmESE (120°)9.3 km/h31.5 km/h3.56 mmRainLight Rain
10:54 PM27.8 °C25 °C85 %1013.9 hPa11.3 kmSE (140°)7.4 km/h3.56 mmRainLight Rain
11:21 PM28 °C26 °C89 %1014.2 hPa16.1 kmESE (110°)5.6 km/h0.25 mmMostly Cloudy
11:32 PM28 °C26 °C89 %1013.9 hPa16.1 kmESE (110°)11.1 km/h0.25 mmMostly Cloudy
11:44 PM28 °C24 °C79 %1013.9 hPa16.1 kmEast (90°)13 km/h0.25 mmMostly Cloudy
11:54 PM27.8 °C23.9 °C79 %1013.2 hPa16.1 kmEast (80°)16.7 km/h0.25 mmScattered Clouds
Hourly data recorded from PGUM, located 0 kilometers away from Potts Junction, Guam







STORIES FROM OUR PARTNERS